Weather History for Gillette, WY

Change the Weather History Date:

Thursday, March 21, 2013

  Actual Average Record
Temperature  
Mean Temperature 28 °F 36 °F  
Max Temperature 39 °F 49 °F 73 °F (2009)
Min Temperature 17 °F 23 °F -1 °F (1965)
Degree Days  
Heating Degree Days 37 29  
Month to date heating degree days 629 661  
Since 1 July heating degree days 5752 6069  
Cooling Degree Days 0 0  
Month to date cooling degree days 0 0  
Year to date cooling degree days 0 0  
Moisture  
Dew Point 27 °F    
Average Humidity 80    
Maximum Humidity 100    
Minimum Humidity 59    
Precipitation  
Precipitation 0.10 in 0.03 in 1.20 in (1946)
Month to date precipitation 0.24 0.58  
Year to date precipitation 1.37 1.36  
Sea Level Pressure  
Sea Level Pressure 29.70 in    
Wind  
Wind Speed 12 mph (NNW)    
Max Wind Speed 31 mph    
Max Gust Speed 38 mph    
Visibility 5 miles    
Events Fog , Snow    
T = Trace of Precipitation, MM = Missing Value Source: NWS Daily Summary

Daily Weather History Graph

Daily Weather History Graph

Search for Another Location

Airport:

Trip Planner

Search our weather history database for the weather conditions in past years. The results will help you decide how hot, cold, wet, or windy it might be!

Date:

Astronomy

Mar. 21, 2013 Rise Set
Actual Time 7:02 AM MDT 7:16 PM MDT
Civil Twilight 6:33 AM MDT 7:45 PM MDT
Nautical Twilight 5:59 AM MDT 8:19 PM MDT
Astronomical Twilight 5:25 AM MDT 8:54 PM MDT
Moon 1:37 PM MDT (3/21) 3:37 AM MDT (3/21)
Length of Visible Light 13h 11m
Length of Day
12h 13m
Waxing Gibbous, 69% of the Moon is Illuminated
Mar 21
Waxing Gibbous
Mar 27
Full
Apr 2
Last Quarter
Apr 10
New
Apr 18
First Quarter

Hourly Weather History & Observations

Time (MDT) Temp. Windchill Dew Point Humidity Pressure Visibility Wind Dir Wind Speed Gust Speed Precip Events Conditions
12:53 AM 23.0 °F - 17.1 °F 78% 29.65 in 10.0 mi Calm Calm - N/A   Clear
1:53 AM 23.0 °F 18.4 °F 18.0 °F 81% 29.62 in 10.0 mi West 3.5 mph - N/A   Clear
2:53 AM 26.1 °F 21.9 °F 19.9 °F 78% 29.58 in 10.0 mi South 3.5 mph - N/A   Clear
3:53 AM 28.0 °F 24.2 °F 21.9 °F 78% 29.56 in 10.0 mi SE 3.5 mph - N/A   Clear
4:53 AM 27.0 °F - 21.9 °F 81% 29.52 in 10.0 mi Calm Calm - N/A   Clear
5:53 AM 30.0 °F 23.2 °F 21.9 °F 72% 29.53 in 10.0 mi SSE 6.9 mph - N/A   Clear
6:53 AM 28.0 °F - 21.9 °F 78% 29.55 in 10.0 mi Calm Calm - N/A   Clear
7:53 AM 28.9 °F 22.8 °F 24.1 °F 82% 29.59 in 10.0 mi West 5.8 mph - N/A   Clear
8:53 AM 35.1 °F 27.9 °F 26.1 °F 70% 29.58 in 10.0 mi NNW 9.2 mph - N/A   Clear
9:53 AM 37.0 °F 25.1 °F 25.0 °F 62% 29.60 in 10.0 mi North 26.5 mph 35.7 mph N/A   Partly Cloudy
10:53 AM 39.0 °F 28.0 °F 26.1 °F 60% 29.61 in 10.0 mi NNW 25.3 mph 33.4 mph N/A   Mostly Cloudy
11:43 AM 37.4 °F 26.4 °F 26.6 °F 65% 29.60 in 10.0 mi NNW 23.0 mph 32.2 mph N/A   Overcast
11:53 AM 36.0 °F 23.5 °F 26.1 °F 67% 29.67 in 10.0 mi NNW 27.6 mph - N/A   Overcast
12:32 PM 33.8 °F 21.9 °F 28.4 °F 81% 29.62 in 2.0 mi North 21.9 mph 32.2 mph 0.00 in Snow Light Snow
12:37 PM 33.8 °F 22.2 °F 30.2 °F 87% 29.63 in 1.5 mi NNW 20.7 mph 32.2 mph 0.00 in Snow Light Snow
12:46 PM 32.0 °F 18.9 °F 30.2 °F 93% 29.63 in 1.2 mi NNW 24.2 mph 28.8 mph 0.00 in Snow Light Snow
12:53 PM 32.0 °F 20.8 °F 30.0 °F 92% 29.72 in 1.2 mi NNW 17.3 mph 28.8 mph 0.00 in Snow Light Snow
1:02 PM 32.0 °F 20.1 °F 30.2 °F 93% 29.64 in 1.5 mi NNW 19.6 mph 31.1 mph 0.00 in Snow Light Snow
1:24 PM 32.0 °F 19.8 °F 30.2 °F 93% 29.66 in 2.5 mi NNW 20.7 mph 25.3 mph 0.00 in Snow Light Snow
1:40 PM 30.2 °F 16.8 °F 30.2 °F 100% 29.66 in 1.2 mi NNW 23.0 mph 27.6 mph 0.00 in Snow Light Snow
1:51 PM 30.2 °F 17.1 °F 30.2 °F 100% 29.66 in 0.8 mi NNW 21.9 mph 26.5 mph 0.01 in Snow Light Snow
1:53 PM 30.9 °F 18.4 °F 30.0 °F 96% 29.75 in 0.8 mi NNW 20.7 mph 26.5 mph 0.01 in Snow Light Snow
2:06 PM 30.2 °F 17.1 °F 30.2 °F 100% 29.65 in 0.8 mi NNW 21.9 mph 32.2 mph 0.00 in Snow Light Snow
2:17 PM 30.2 °F 17.4 °F 30.2 °F 100% 29.65 in 0.5 mi North 20.7 mph 28.8 mph 0.01 in Fog , Snow Snow
2:36 PM 30.2 °F 17.4 °F 30.2 °F 100% 29.65 in 0.5 mi North 20.7 mph 26.5 mph 0.01 in Fog , Snow Snow
2:48 PM 30.2 °F 16.2 °F 30.2 °F 100% 29.65 in 0.5 mi North 25.3 mph 31.1 mph 0.02 in Fog , Snow Snow
2:53 PM 30.9 °F 17.8 °F 30.0 °F 96% 29.74 in 0.5 mi NNW 23.0 mph 31.1 mph 0.02 in Fog , Snow Snow
3:14 PM 30.2 °F 17.1 °F 28.4 °F 93% 29.67 in 0.5 mi NNW 21.9 mph 35.7 mph 0.01 in Fog , Snow Snow
3:43 PM 30.2 °F 16.8 °F 28.4 °F 93% 29.67 in 0.8 mi NNW 23.0 mph 33.4 mph 0.02 in Snow Light Snow
3:53 PM 30.0 °F 17.2 °F 28.9 °F 96% 29.76 in 0.5 mi NNW 20.7 mph - 0.02 in Fog , Snow Snow
4:53 PM 30.0 °F 18.7 °F 28.9 °F 96% 29.78 in 0.8 mi North 16.1 mph 25.3 mph 0.03 in Snow Light Snow
5:05 PM 30.2 °F 17.8 °F 28.4 °F 93% 29.71 in 1.0 mi NNW 19.6 mph 27.6 mph 0.00 in Snow Light Snow
5:17 PM 30.2 °F 17.8 °F 28.4 °F 93% 29.71 in 0.8 mi North 19.6 mph - 0.00 in Snow Light Snow
5:53 PM 28.9 °F 15.8 °F 28.0 °F 96% 29.81 in 0.8 mi North 20.7 mph 27.6 mph 0.01 in Snow Light Snow
6:02 PM 28.4 °F 15.4 °F 28.4 °F 100% 29.74 in 1.0 mi NNW 19.6 mph - 0.00 in Snow Light Snow
6:09 PM 28.4 °F 16.2 °F 28.4 °F 100% 29.74 in 1.8 mi NNW 17.3 mph - 0.00 in Snow Light Snow
6:17 PM 28.4 °F 16.6 °F 28.4 °F 100% 29.74 in 2.5 mi NNW 16.1 mph - 0.00 in   Overcast
6:24 PM 28.4 °F 15.8 °F 28.4 °F 100% 29.74 in 3.0 mi NNW 18.4 mph - 0.00 in Snow Light Snow
6:32 PM 28.4 °F 15.8 °F 26.6 °F 93% 29.74 in 2.0 mi NNW 18.4 mph - 0.00 in Snow Light Snow
6:38 PM 28.4 °F 16.6 °F 28.4 °F 100% 29.75 in 1.8 mi NNW 16.1 mph - 0.00 in Snow Light Snow
6:53 PM 28.9 °F 18.2 °F 28.0 °F 96% 29.84 in 1.0 mi NNW 13.8 mph - 0.00 in Snow Light Snow
7:19 PM 28.4 °F 20.4 °F 28.4 °F 100% 29.77 in 2.0 mi NNW 8.1 mph - 0.01 in Snow Light Snow
7:28 PM 28.4 °F 19.1 °F 26.6 °F 93% 29.77 in 8.0 mi NNW 10.4 mph - 0.01 in   Overcast
7:35 PM 28.4 °F 19.7 °F 26.6 °F 93% 29.77 in 10.0 mi NNW 9.2 mph - 0.01 in   Overcast
7:44 PM 28.4 °F 21.2 °F 26.6 °F 93% 29.77 in 10.0 mi NNW 6.9 mph - 0.01 in   Overcast
7:53 PM 27.0 °F 18.7 °F 27.0 °F 100% 29.87 in 10.0 mi NNW 8.1 mph - 0.01 in   Overcast
8:00 PM 28.4 °F 19.7 °F 26.6 °F 93% 29.78 in 10.0 mi NW 9.2 mph - N/A   Overcast
8:17 PM 28.4 °F 21.2 °F 26.6 °F 93% 29.78 in 10.0 mi NW 6.9 mph - N/A   Overcast
8:53 PM 27.0 °F 23.0 °F 27.0 °F 100% 29.87 in 10.0 mi WNW 3.5 mph - N/A   Overcast
9:30 PM 24.8 °F - 24.8 °F 100% 29.81 in 10.0 mi Calm Calm - N/A   Mostly Cloudy
9:53 PM 24.1 °F 18.2 °F 23.0 °F 96% 29.89 in 10.0 mi West 4.6 mph - N/A   Scattered Clouds
10:53 PM 19.9 °F 14.9 °F 18.0 °F 92% 29.90 in 10.0 mi SSW 3.5 mph - N/A   Mostly Cloudy
11:00 PM 21.2 °F 12.6 °F 21.2 °F 100% 29.82 in 10.0 mi SW 6.9 mph - N/A   Mostly Cloudy
11:53 PM 27.0 °F - 25.0 °F 92% 29.89 in 10.0 mi Calm Calm - N/A   Overcast